PDT6123 KPHL-KPWM

Flight info

Callsign PDT6123
Flight time 1h 5m
Altitude 29000
Route DITCH T416 JIMEE WAVEY SHIPP CCC SCOGS3
Aircraft E145/M-SDFGIRW/S

Departure

Time 2026-04-21 22:15
Airport Philadelphia International Airport (KPHL)

Arrival

Time 2026-04-21 23:20
Airport Portland International Jetport (KPWM)
Time Latitude Longitude Altitude Speed Heading
2026-04-21 21:53 39.88070 -75.23659 14 ft 0 kts 219°
2026-04-21 22:06 39.88074 -75.23654 14 ft 1 kts 219°
2026-04-21 22:06 39.88086 -75.23643 14 ft 2 kts 213°
2026-04-21 22:07 39.88099 -75.23633 14 ft 2 kts 208°
2026-04-21 22:07 39.88113 -75.23624 14 ft 2 kts 202°
2026-04-21 22:07 39.88127 -75.23618 14 ft 1 kts 197°
2026-04-21 22:07 39.88129 -75.23616 14 ft 0 kts 197°
2026-04-21 22:10 39.88109 -75.23606 14 ft 7 kts 133°
2026-04-21 22:10 39.88085 -75.23533 13 ft 10 kts 112°
2026-04-21 22:10 39.88025 -75.23476 14 ft 11 kts 159°
2026-04-21 22:11 39.87941 -75.23440 14 ft 13 kts 170°
2026-04-21 22:11 39.87840 -75.23425 14 ft 15 kts 166°
2026-04-21 22:11 39.87729 -75.23373 12 ft 18 kts 159°
2026-04-21 22:11 39.87606 -75.23312 12 ft 19 kts 160°
2026-04-21 22:12 39.87487 -75.23254 13 ft 16 kts 159°
2026-04-21 22:12 39.87381 -75.23202 14 ft 16 kts 160°
2026-04-21 22:12 39.87268 -75.23146 12 ft 19 kts 159°
2026-04-21 22:12 39.87156 -75.23097 13 ft 12 kts 191°
2026-04-21 22:13 39.87100 -75.23182 13 ft 13 kts 215°
2026-04-21 22:13 39.87045 -75.23286 13 ft 15 kts 247°
2026-04-21 22:13 39.87007 -75.23410 13 ft 12 kts 215°
2026-04-21 22:13 39.86927 -75.23403 13 ft 7 kts 170°
2026-04-21 22:14 39.86894 -75.23452 13 ft 9 kts 254°
2026-04-21 22:14 39.86849 -75.23673 13 ft 55 kts 255°
2026-04-21 22:14 39.86694 -75.24449 16 ft 118 kts 255°
2026-04-21 22:14 39.86471 -75.25629 203 ft 143 kts 255°
2026-04-21 22:15 39.86253 -75.26952 666 ft 156 kts 256°
2026-04-21 22:15 39.85728 -75.28194 1165 ft 165 kts 219°
2026-04-21 22:15 39.84587 -75.28673 1405 ft 194 kts 176°
2026-04-21 22:15 39.83297 -75.27909 1754 ft 224 kts 141°
2026-04-21 22:16 39.82244 -75.26239 2172 ft 250 kts 114°
2026-04-21 22:16 39.81703 -75.24089 3021 ft 253 kts 108°
2026-04-21 22:16 39.81192 -75.21895 3807 ft 258 kts 103°
2026-04-21 22:16 39.81019 -75.19566 4547 ft 264 kts 93°
2026-04-21 22:17 39.80925 -75.17179 5267 ft 270 kts 92°
2026-04-21 22:17 39.80843 -75.14724 6057 ft 273 kts 91°
2026-04-21 22:17 39.80762 -75.12237 6815 ft 277 kts 91°
2026-04-21 22:17 39.80680 -75.09717 7461 ft 284 kts 90°
2026-04-21 22:18 39.80597 -75.07136 8119 ft 290 kts 89°
2026-04-21 22:18 39.80511 -75.04518 8802 ft 295 kts 88°
2026-04-21 22:18 39.80421 -75.01803 9446 ft 301 kts 87°
2026-04-21 22:18 39.80330 -74.99060 10096 ft 306 kts 87°
2026-04-21 22:19 39.80239 -74.96320 10771 ft 309 kts 86°
2026-04-21 22:19 39.80145 -74.93520 11448 ft 312 kts 87°
2026-04-21 22:19 39.80048 -74.90678 12023 ft 319 kts 87°
2026-04-21 22:19 39.79947 -74.87663 12055 ft 345 kts 87°
2026-04-21 22:20 39.79837 -74.84535 12498 ft 353 kts 87°
2026-04-21 22:20 39.79725 -74.81328 13201 ft 352 kts 87°
2026-04-21 22:20 39.79613 -74.78130 13810 ft 355 kts 87°
2026-04-21 22:20 39.79499 -74.74916 14426 ft 358 kts 87°
2026-04-21 22:21 39.79409 -74.71712 14950 ft 359 kts 82°
2026-04-21 22:21 39.79650 -74.68479 15485 ft 359 kts 77°
2026-04-21 22:21 39.79918 -74.65260 16088 ft 361 kts 77°
2026-04-21 22:21 39.80190 -74.61995 16588 ft 365 kts 77°
2026-04-21 22:22 39.80459 -74.58741 17104 ft 368 kts 77°
2026-04-21 22:22 39.80732 -74.55415 17646 ft 370 kts 77°
2026-04-21 22:22 39.81006 -74.52081 18152 ft 372 kts 77°
2026-04-21 22:22 39.81276 -74.48773 18767 ft 371 kts 77°
2026-04-21 22:23 39.81549 -74.45422 19353 ft 370 kts 77°
2026-04-21 22:23 39.81739 -74.42121 19978 ft 371 kts 83°
2026-04-21 22:23 39.81732 -74.38776 20491 ft 373 kts 83°
2026-04-21 22:23 39.81729 -74.35374 21031 ft 372 kts 83°
2026-04-21 22:24 39.81726 -74.32223 21564 ft 371 kts 83°
2026-04-21 22:24 39.81722 -74.28870 22026 ft 372 kts 83°
2026-04-21 22:24 39.81717 -74.25514 22603 ft 370 kts 83°
2026-04-21 22:24 39.81711 -74.22206 23125 ft 369 kts 83°
2026-04-21 22:25 39.81704 -74.18842 23636 ft 368 kts 83°
2026-04-21 22:25 39.82005 -74.15597 24096 ft 352 kts 63°
2026-04-21 22:25 39.83114 -74.12890 24537 ft 335 kts 45°
2026-04-21 22:25 39.84454 -74.10457 25056 ft 333 kts 45°
2026-04-21 22:26 39.85810 -74.08001 25553 ft 333 kts 44°
2026-04-21 22:26 39.87157 -74.05568 26068 ft 332 kts 44°
2026-04-21 22:26 39.88505 -74.03134 26580 ft 330 kts 44°
2026-04-21 22:26 39.89856 -74.00695 27075 ft 330 kts 44°
2026-04-21 22:27 39.91211 -73.98250 27574 ft 328 kts 44°
2026-04-21 22:27 39.92563 -73.95805 28009 ft 329 kts 44°
2026-04-21 22:27 39.93905 -73.93380 28453 ft 329 kts 44°
2026-04-21 22:27 39.95235 -73.90970 28928 ft 328 kts 44°
2026-04-21 22:28 39.96560 -73.88572 29301 ft 330 kts 44°
2026-04-21 22:28 39.97931 -73.86093 29322 ft 344 kts 44°
2026-04-21 22:28 39.99363 -73.83498 29326 ft 357 kts 44°
2026-04-21 22:28 40.00832 -73.80831 29323 ft 369 kts 45°
2026-04-21 22:29 40.02362 -73.78047 29323 ft 381 kts 45°
2026-04-21 22:29 40.03911 -73.75229 29318 ft 392 kts 45°
2026-04-21 22:29 40.05528 -73.72285 29321 ft 402 kts 45°
2026-04-21 22:30 40.08872 -73.66185 29320 ft 421 kts 45°
2026-04-21 22:30 40.12344 -73.59841 29334 ft 437 kts 46°
2026-04-21 22:31 40.15924 -73.53285 29325 ft 446 kts 46°
2026-04-21 22:31 40.19556 -73.46619 29328 ft 447 kts 46°
2026-04-21 22:32 40.23130 -73.40050 29330 ft 444 kts 46°
2026-04-21 22:32 40.26943 -73.33813 29327 ft 432 kts 38°
2026-04-21 22:33 40.30936 -73.27834 29321 ft 432 kts 41°
2026-04-21 22:33 40.33024 -73.25092 29317 ft 421 kts 32°
2026-04-21 22:33 40.35361 -73.22862 29316 ft 412 kts 24°
2026-04-21 22:34 40.40328 -73.19252 29314 ft 410 kts 21°
2026-04-21 22:34 40.45328 -73.15553 29314 ft 410 kts 21°
2026-04-21 22:35 40.50330 -73.11838 29315 ft 411 kts 21°
2026-04-21 22:35 40.55337 -73.08110 29312 ft 411 kts 21°
2026-04-21 22:36 40.62800 -73.02541 29310 ft 412 kts 21°
2026-04-21 22:36 40.67805 -72.98800 29309 ft 412 kts 21°
2026-04-21 22:37 40.72838 -72.95029 29312 ft 412 kts 21°
2026-04-21 22:37 40.77820 -72.91292 29311 ft 412 kts 21°
2026-04-21 22:38 40.82807 -72.87543 29314 ft 412 kts 21°
2026-04-21 22:38 40.87837 -72.83755 29313 ft 413 kts 21°
2026-04-21 22:39 40.92814 -72.79864 29310 ft 418 kts 27°
2026-04-21 22:39 40.97208 -72.74635 29314 ft 427 kts 34°
2026-04-21 22:40 41.01553 -72.69214 29321 ft 427 kts 34°
2026-04-21 22:40 41.05866 -72.63836 29318 ft 426 kts 34°
2026-04-21 22:41 41.10187 -72.58437 29317 ft 426 kts 33°
2026-04-21 22:41 41.14527 -72.53007 29325 ft 427 kts 34°
2026-04-21 22:42 41.18852 -72.47585 29323 ft 428 kts 34°
2026-04-21 22:42 41.23203 -72.42118 29318 ft 429 kts 34°
2026-04-21 22:43 41.27526 -72.36678 29314 ft 429 kts 34°
2026-04-21 22:43 41.31900 -72.31161 29302 ft 430 kts 34°
2026-04-21 22:44 41.36226 -72.25695 29303 ft 429 kts 34°
2026-04-21 22:44 41.40566 -72.20201 29296 ft 429 kts 34°
2026-04-21 22:45 41.44894 -72.14712 29299 ft 429 kts 34°
2026-04-21 22:45 41.49223 -72.09209 29297 ft 428 kts 34°
2026-04-21 22:46 41.53535 -72.03719 29296 ft 428 kts 34°
2026-04-21 22:46 41.57848 -71.98216 29296 ft 428 kts 34°
2026-04-21 22:47 41.62176 -71.92684 29293 ft 428 kts 34°
2026-04-21 22:47 41.66468 -71.87186 29295 ft 428 kts 34°
2026-04-21 22:48 41.70762 -71.81677 29295 ft 427 kts 34°
2026-04-21 22:48 41.75052 -71.76161 29292 ft 427 kts 34°
2026-04-21 22:49 41.79333 -71.70645 29292 ft 427 kts 34°
2026-04-21 22:49 41.83561 -71.64933 29293 ft 435 kts 41°
2026-04-21 22:50 41.85287 -71.61594 29296 ft 447 kts 50°
2026-04-21 22:50 41.86693 -71.57790 29298 ft 454 kts 56°
2026-04-21 22:50 41.89406 -71.50117 29292 ft 453 kts 54°
2026-04-21 22:51 41.92139 -71.42503 29294 ft 453 kts 54°
2026-04-21 22:51 41.94844 -71.34955 29291 ft 453 kts 54°
2026-04-21 22:52 41.97610 -71.27215 29280 ft 453 kts 54°
2026-04-21 22:52 42.00336 -71.19569 29279 ft 452 kts 54°
2026-04-21 22:53 42.03065 -71.11892 29283 ft 451 kts 54°
2026-04-21 22:53 42.05767 -71.04267 29289 ft 451 kts 54°
2026-04-21 22:54 42.08966 -70.97220 29291 ft 430 kts 39°
2026-04-21 22:54 42.11046 -70.94395 29305 ft 417 kts 31°
2026-04-21 22:54 42.13296 -70.91957 29307 ft 410 kts 25°
2026-04-21 22:55 42.15758 -70.90025 29314 ft 399 kts 16°
2026-04-21 22:55 42.18347 -70.88736 29310 ft 389 kts
2026-04-21 22:55 42.23549 -70.86644 29292 ft 393 kts 10°
2026-04-21 22:56 42.26154 -70.85456 28962 ft 388 kts 10°
2026-04-21 22:56 42.28706 -70.84273 28425 ft 378 kts 10°
2026-04-21 22:56 42.31182 -70.83118 27791 ft 376 kts 10°
2026-04-21 22:56 42.33628 -70.81976 27061 ft 374 kts 10°
2026-04-21 22:57 42.36070 -70.80829 26313 ft 363 kts
2026-04-21 22:57 42.38400 -70.79734 25872 ft 347 kts 10°
2026-04-21 22:57 42.40649 -70.78680 25409 ft 342 kts
2026-04-21 22:57 42.42887 -70.77631 24917 ft 338 kts
2026-04-21 22:58 42.45095 -70.76475 24434 ft 337 kts 12°
2026-04-21 22:58 42.47255 -70.75288 24322 ft 333 kts 12°
2026-04-21 22:58 42.49426 -70.74097 24322 ft 333 kts 11°
2026-04-21 22:58 42.51572 -70.72920 24321 ft 332 kts 12°
2026-04-21 22:59 42.53706 -70.71748 24317 ft 332 kts 12°
2026-04-21 22:59 42.55848 -70.70570 24317 ft 331 kts 11°
2026-04-21 22:59 42.57987 -70.69395 24316 ft 332 kts 11°
2026-04-21 22:59 42.60134 -70.68214 24320 ft 333 kts 11°
2026-04-21 23:00 42.62287 -70.67028 24315 ft 334 kts 12°
2026-04-21 23:00 42.64453 -70.65833 24314 ft 334 kts 12°
2026-04-21 23:00 42.66633 -70.64632 24045 ft 339 kts 12°
2026-04-21 23:00 42.68792 -70.63358 23602 ft 342 kts 15°
2026-04-21 23:01 42.70941 -70.62003 23248 ft 335 kts 15°
2026-04-21 23:01 42.73033 -70.60687 22867 ft 330 kts 14°
2026-04-21 23:01 42.75114 -70.59380 22470 ft 326 kts 14°
2026-04-21 23:01 42.77162 -70.58095 22028 ft 323 kts 14°
2026-04-21 23:02 42.79190 -70.56819 21573 ft 323 kts 15°
2026-04-21 23:02 42.81254 -70.55521 21010 ft 328 kts 15°
2026-04-21 23:02 42.83297 -70.54233 20431 ft 326 kts 16°
2026-04-21 23:02 42.85342 -70.52943 19837 ft 325 kts 15°
2026-04-21 23:03 42.87389 -70.51651 19249 ft 323 kts 16°
2026-04-21 23:03 42.89424 -70.50366 18656 ft 322 kts 16°
2026-04-21 23:03 42.91464 -70.49078 18061 ft 320 kts 17°
2026-04-21 23:03 42.93459 -70.47815 17473 ft 319 kts 17°
2026-04-21 23:04 42.95470 -70.46543 16879 ft 319 kts 17°
2026-04-21 23:04 42.97477 -70.45273 16280 ft 317 kts 18°
2026-04-21 23:04 42.99478 -70.44003 15675 ft 316 kts 18°
2026-04-21 23:04 43.01476 -70.42736 15065 ft 315 kts 18°
2026-04-21 23:05 43.03368 -70.41248 14466 ft 319 kts 26°
2026-04-21 23:05 43.05234 -70.39626 13857 ft 318 kts 26°
2026-04-21 23:05 43.07102 -70.38007 13249 ft 316 kts 26°
2026-04-21 23:05 43.08942 -70.36414 12647 ft 315 kts 27°
2026-04-21 23:06 43.10785 -70.34814 12036 ft 311 kts 28°
2026-04-21 23:06 43.12561 -70.33271 11435 ft 306 kts 28°
2026-04-21 23:06 43.14349 -70.31718 11108 ft 292 kts 28°
2026-04-21 23:06 43.16008 -70.30275 10921 ft 279 kts 28°
2026-04-21 23:07 43.17604 -70.28875 10655 ft 269 kts 27°
2026-04-21 23:07 43.19167 -70.27505 10475 ft 263 kts 27°
2026-04-21 23:07 43.20706 -70.26153 10344 ft 262 kts 28°
2026-04-21 23:07 43.22228 -70.24815 10213 ft 262 kts 28°
2026-04-21 23:08 43.23846 -70.23706 10034 ft 254 kts
2026-04-21 23:08 43.25549 -70.23708 9864 ft 246 kts 342°
2026-04-21 23:08 43.26985 -70.24879 9699 ft 242 kts 316°
2026-04-21 23:08 43.28209 -70.26502 9458 ft 245 kts 317°
2026-04-21 23:09 43.29485 -70.28114 9199 ft 249 kts 317°
2026-04-21 23:09 43.30766 -70.29722 8896 ft 253 kts 317°
2026-04-21 23:09 43.32066 -70.31350 8585 ft 256 kts 317°
2026-04-21 23:09 43.33337 -70.32941 8234 ft 240 kts 317°
2026-04-21 23:10 43.34555 -70.34470 7955 ft 234 kts 317°
2026-04-21 23:10 43.35741 -70.36019 7687 ft 233 kts 313°
2026-04-21 23:10 43.36855 -70.37590 7418 ft 230 kts 313°
2026-04-21 23:10 43.37965 -70.39147 7152 ft 228 kts 313°
2026-04-21 23:11 43.39062 -70.40688 6943 ft 225 kts 313°
2026-04-21 23:11 43.40161 -70.42231 6758 ft 228 kts 313°
2026-04-21 23:11 43.41284 -70.43807 6609 ft 233 kts 313°
2026-04-21 23:11 43.42437 -70.45428 6454 ft 240 kts 313°
2026-04-21 23:12 43.43615 -70.47083 6301 ft 246 kts 313°
2026-04-21 23:12 43.44825 -70.48785 6135 ft 248 kts 313°
2026-04-21 23:12 43.46034 -70.50487 5971 ft 248 kts 313°
2026-04-21 23:12 43.47226 -70.52167 5820 ft 247 kts 313°
2026-04-21 23:13 43.48427 -70.53858 5644 ft 244 kts 313°
2026-04-21 23:13 43.49605 -70.55520 5485 ft 241 kts 313°
2026-04-21 23:13 43.50773 -70.57168 5217 ft 243 kts 313°
2026-04-21 23:13 43.51947 -70.58825 4928 ft 242 kts 313°
2026-04-21 23:14 43.53130 -70.60497 4610 ft 242 kts 313°
2026-04-21 23:14 43.54295 -70.62144 4301 ft 242 kts 313°
2026-04-21 23:14 43.55582 -70.63616 4048 ft 241 kts 333°
2026-04-21 23:14 43.57229 -70.63988 3854 ft 240 kts
2026-04-21 23:15 43.58838 -70.63531 3655 ft 235 kts 10°
2026-04-21 23:15 43.60428 -70.63085 3442 ft 230 kts 11°
2026-04-21 23:15 43.61988 -70.62642 3234 ft 226 kts 13°
2026-04-21 23:15 43.63316 -70.61589 3065 ft 220 kts 50°
2026-04-21 23:16 43.64041 -70.59785 2951 ft 214 kts 68°
2026-04-21 23:16 43.64661 -70.57896 2832 ft 220 kts 68°
2026-04-21 23:16 43.65297 -70.55933 2708 ft 226 kts 68°
2026-04-21 23:16 43.65874 -70.53947 2575 ft 221 kts 82°
2026-04-21 23:17 43.65866 -70.51899 2462 ft 211 kts 98°
2026-04-21 23:17 43.65736 -70.49913 2332 ft 205 kts 99°
2026-04-21 23:17 43.65611 -70.48019 2254 ft 191 kts 99°
2026-04-21 23:17 43.65493 -70.46230 2053 ft 185 kts 100°
2026-04-21 23:18 43.65377 -70.44489 1828 ft 181 kts 100°
2026-04-21 23:18 43.65270 -70.42835 1611 ft 161 kts 101°
2026-04-21 23:18 43.65178 -70.41406 1396 ft 135 kts 102°
2026-04-21 23:18 43.65095 -70.40203 1205 ft 125 kts 102°
2026-04-21 23:19 43.65012 -70.38991 1034 ft 126 kts 101°
2026-04-21 23:19 43.64935 -70.37804 863 ft 124 kts 101°
2026-04-21 23:19 43.64874 -70.36624 691 ft 123 kts 102°
2026-04-21 23:19 43.64787 -70.35444 536 ft 124 kts 102°
2026-04-21 23:20 43.64701 -70.34240 363 ft 125 kts 101°
2026-04-21 23:20 43.64618 -70.33051 178 ft 125 kts 102°
2026-04-21 23:20 43.64537 -70.31885 59 ft 112 kts 97°
2026-04-21 23:20 43.64485 -70.31108 58 ft 43 kts 95°
2026-04-21 23:21 43.64464 -70.30806 58 ft 17 kts 95°
2026-04-21 23:21 43.64499 -70.30694 58 ft 13 kts 12°
2026-04-21 23:21 43.64565 -70.30725 58 ft 9 kts 294°
2026-04-21 23:21 43.64576 -70.30819 58 ft 11 kts 277°
2026-04-21 23:22 43.64584 -70.30936 58 ft 13 kts 275°
2026-04-21 23:22 43.64592 -70.31070 58 ft 15 kts 276°
2026-04-21 23:22 43.64604 -70.31224 58 ft 12 kts 280°
2026-04-21 23:22 43.64656 -70.31300 58 ft 9 kts 322°
2026-04-21 23:23 43.64683 -70.31288 58 ft 5 kts 45°
2026-04-21 23:23 43.64702 -70.31258 58 ft 0 kts 49°